Simultaneous Nadir Overpasses (SNOs) Predictions

Prediction of SNOs between METOP-C and LANDSAT-8 Satellite Orbit:

Table of predicted SNOs for the next 14.0 days since TLE Epoch: 10/18/2023
Index Date (METOP-C) Time (METOP-C) Lat,Lon (METOP-C) SZA (METOP-C ) Date (LANDSAT-8) Time (LANDSAT-8) Lat,Lon (LANDSAT-8) SZA (LANDSAT-8 ) Distance(km) Time Diff (sec)
1 10/19/2023 03:04:47 -81.12, -6.53 86.69 10/19/2023 03:05:48 -81.12, -6.58 86.66 0.82 61
2 10/19/2023 03:55:26 81.13, 161.21 93.38 10/19/2023 03:55:14 81.12, 161.15 93.37 1.23 12
3 10/21/2023 22:39:10 -81.12, 60.00 85.65 10/21/2023 22:40:01 -81.13, 59.98 85.63 0.66 51
4 10/21/2023 23:29:49 81.13,-132.32 94.41 10/21/2023 23:29:27 81.13,-132.32 94.39 0.36 22
5 10/24/2023 18:13:33 -81.12, 126.43 84.66 10/24/2023 18:14:14 -81.11, 126.24 84.67 3.26 41
6 10/24/2023 19:04:11 81.14, -65.58 95.44 10/24/2023 19:03:39 81.14, -65.72 95.41 2.47 32
7 10/27/2023 13:47:55 -81.13,-166.88 83.66 10/27/2023 13:48:25 -81.13,-167.05 83.66 2.84 30
8 10/27/2023 14:38:34 81.14, 0.68 96.39 10/27/2023 14:37:51 81.13, 0.60 96.36 1.70 43
9 10/30/2023 09:22:17 -81.12,-100.67 82.74 10/30/2023 09:22:35 -81.13,-100.62 82.73 0.98 18



Historial Predications of SNOs between METOP-C and LANDSAT-8
